Location: Haulchin
(50.3172°N, 3.4360°E)
Time: 01:52:52
(UTC+00:00)

PSLV R/B - Pass Details

Date: 23 May 2024
Orbit: 591 x 691 km, 97.9° (Epoch: 21 June)

Event Time Altitude Azimuth Distance (km) Brightness Sun altitude
Rises 00:18:10 0° 8° (N) 3,031 8.8 -18.6°
Reaches altitude 10° 00:20:31 10° 2° (N) 2,098 7.5 -18.6°
Maximum altitude 00:24:50 42° 292° (WNW) 927 4.5 -18.4°
Enters shadow 00:26:51 26° 239° (WSW) 1,269 4.8 -18.4°
